Regional Weather Roundup
Issued by NWS

Home | Current Version | Previous Version | Graphics & Text | Print | Product List | Glossary On
Versions: 1 2 3 4 5 6 7 8 9 10 11 12 13 14 15 16 17 18 19 20 21 22 23 24 25 26 27 28 29 30 31 32 33 34 35 36 37 38 39 40 41 42 43 44 45 46 47 48 49 50
000
ASUS43 KLOT 192203
RWRIL

ILLINOIS REGIONAL WEATHER ROUNDUP
NATIONAL WEATHER SERVICE CHICAGO/ROMEOVILLE IL
400 PM CST MON FEB 19 2018

NOTE: "FAIR" INDICATES FEW OR NO CLOUDS BELOW 12,000 FEET WITH NO
SIGNIFICANT WEATHER AND/OR OBSTRUCTIONS TO VISIBILITY.

* THESE STATIONS ARE NOT UNDER NWS QUALITY CONTROL. THEY ALSO MAY NOT
  REPORT WEATHER SUCH AS PRECIPITATION OR FOG.

ILZ001-002-007-009-015-016-024-192300-
NORTHWEST ILLINOIS

CITY           SKY/WX    TMP DP  RH WIND       PRES   REMARKS
MOLINE         FAIR      63  56  78 S18G29    29.67S
STERLING*      CLOUDY    54  52  93 S9G17     29.72S
SAVANNA*       RAIN      45  45 100 S7        29.70R VSB<1/4
$$

ILZ003-004-008-010-011-017-018-192300-
NORTH CENTRAL ILLINOIS

CITY           SKY/WX    TMP DP  RH WIND       PRES   REMARKS
ROCKFORD       FOG       44  44 100 S6        29.76R VSB 1/8
FREEPORT*      FOG       38  38  99 CALM      29.74R VSB<1/4
ROCHELLE*      FOG       43  43 100 S15       29.74F VSB<1/4
DE KALB*       LGT RAIN  46  46  99 S15       29.77R VSB<1/4
PERU*          CLOUDY    55  53  90 S15G21    29.78S
$$

ILZ005-006-012>014-019>023-192300-
NORTHEAST ILLINOIS

CITY           SKY/WX    TMP DP  RH WIND       PRES   REMARKS
CHICAGO-OHARE  CLOUDY    57  53  86 SW18G28   29.78R
CHICAGO-MIDWAY LGT RAIN  57  55  93 S15G23    29.80R
AURORA         CLOUDY    51  50  96 S13       29.78R
LANSING*       RAIN      54  54 100 SW16G22   29.84R
JOLIET*        LGT RAIN  58  56  95 SW12G18   29.81S
WAUKEGAN       RAIN      38  38 100 N6        29.78R VSB 1/4 WCI  33
DUPAGE AIRPORT CLOUDY    52  52 100 S15       29.77S FOG
KANKAKEE*      RAIN      57  56  97 SW15G21   29.87R
WHEELING       CLOUDY    57  55  93 S14G23    29.79R
MORRIS*        LGT RAIN  54  53  98 SW17      29.80S
ROMEOVILLE*    RAIN      54  54 100 SW17      29.81R
NORTHERLY ISL    N/A     57  53  86 S20         N/A
$$

LMZ740>746-192300-
SOUTHERN LAKE MICHIGAN

STATION/POSITION SKY/WX   TEMP    WIND        PRES    VSBY  WAVE
                          AIR SEA DIR/SP/G                  HT/PER
                          (F)     (DEG/KT/KT) (MB)    (MI)  (FT/S)
HARRISON CRIB              57     200/ 27/ 28   N/A
BURNHAM HARBOR             57     190/ 14/ 19   N/A
CALUMET HARBOR             57     190/ 13/ 18 1009.1R
BURNS HARBOR               57     210/ 19/ 25 1010.8R
MICHIGAN CITY              58     190/ 23/ 27   N/A
$$

ILZ025>027-034>036-040-047-049-050-058-095>099-192300-
WEST-CENTRAL ILLINOIS

CITY           SKY/WX    TMP DP  RH WIND       PRES   REMARKS
QUINCY         CLOUDY    60  58  92 S17G26    29.75F
GALESBURG*     RAIN      60  57  92 S15G22    29.74S
MACOMB*        LGT RAIN  59  57  94 S16       29.77S
JACKSONVILLE*  LGT RAIN  60  57  92 S17G26    29.83R
PITTSFIELD*    DRIZZLE   61  60  97 S13G20    29.81R
$$

ILZ028>032-037-038-041>044-048-051>054-059>061-192300-
CENTRAL ILLINOIS

CITY           SKY/WX    TMP DP  RH WIND       PRES   REMARKS
BLOOMINGTON    HVY RAIN  58  56  93 S22G32    29.84S FOG
DECATUR        LGT RAIN  59  59 100 S21G28    29.88S
PEORIA         LGT RAIN  59  57  93 S20       29.79S
LACON*         LGT RAIN  60  57  92 S16G29    29.77S
LINCOLN*       LGT RAIN  60  60 100 S9G21     29.85R
SPRINGFIELD    CLOUDY    62  59  90 S18       29.84R
TAYLORVILLE    CLOUDY    59  58  97 S15       29.88S
$$

ILZ033-039-045-046-055>057-062-063-192300-
EAST-CENTRAL ILLINOIS

CITY           SKY/WX    TMP DP  RH WIND       PRES   REMARKS
CHAMPAIGN      RAIN      59  58  96 S24G37    29.89F FOG
DANVILLE*      LGT RAIN  58  57  95 S21G29    29.90R
RANTOUL*       HVY RAIN  60  60  97 S18G30    29.89S
MATTOON        LGT RAIN  59  58  96 S12       29.93F
PARIS*         LGT RAIN  59  58  98 S8        29.97S
$$

ILZ079-100>102-192300-
SOUTHWEST ILLINOIS

CITY           SKY/WX    TMP DP  RH WIND       PRES   REMARKS
ALTON          RAIN      59  59 100 S14       29.88R
BELLEVILLE     CLOUDY    66  58  75 S10       29.87F
CAHOKIA*         N/A    N/A N/A N/A MISG      29.86F
SPARTA*        FAIR      69  59  71 S18G25    29.92R
$$

ILZ064>066-069>071-074>076-080>082-084>086-088>090-092>094-192300-
SOUTH-CENTRAL ILLINOIS

CITY           SKY/WX    TMP DP  RH WIND       PRES   REMARKS
CARBONDALE     FAIR      71  59  65 S28G38    29.95R
CAIRO*         CLOUDY    71  60  68 S13G20    29.98S
EFFINGHAM*     LGT RAIN  62  60  92 SE8       29.96F
MARION         MOSUNNY   68  59  73 S22G33    29.96F
MT. VERNON     CLOUDY    67  58  72 SW18      29.95R
CENTRALIA*     CLOUDY    67  59  75 S17       29.92S
SALEM*         CLOUDY    67  57  69 S14G23    29.93S
METROPOLIS*    FAIR      72  58  62 S12G23    30.00R
$$

ILZ067-068-072-073-078-083-087-091-192300-
SOUTHEAST ILLINOIS

CITY           SKY/WX    TMP DP  RH WIND       PRES   REMARKS
LAWRENCEVILLE  PTSUNNY   69  59  70 S16       29.97F
FLORA*         CLOUDY    68  58  70 S21G28    29.95R
FAIRFIELD*     PTSUNNY   68  59  73 S8        29.95S
HARRISBURG*    FAIR      71  59  64 S16       29.98S
ROBINSON*      CLOUDY    66  58  76 S16       29.96F
CARMI*         PTSUNNY   72  58  63 S15G22    29.97S
$$

ABBREVIATIONS USED IN REMARKS
   TC - TEMPERATURE IN CELSIUS
  WCI - WIND CHILL INDEX
   HX - HEAT INDEX
  VSB - VISIBILITY
$$





USA.gov is the U.S. government's official web portal to all federal, state and local government web resources and services.